TimeEDT,TemperatureF,Dew PointF,Humidity,Sea Level PressureIn,VisibilityMPH,Wind Direction,Wind SpeedMPH,Gust SpeedMPH,PrecipitationIn,Events,Conditions,WindDirDegrees,DateUTC
12:15 AM,73.4,67.8,83,30.33,10.0,Calm,Calm,-,N/A,,Scattered Clouds,0,2013-07-15 04:15:00
12:35 AM,72.1,67.3,85,30.33,10.0,Calm,Calm,-,N/A,,Clear,0,2013-07-15 04:35:00
12:55 AM,71.2,68.2,90,30.33,10.0,Calm,Calm,-,N/A,,Clear,0,2013-07-15 04:55:00
1:15 AM,72.1,67.8,86,30.33,10.0,Calm,Calm,-,N/A,,Clear,0,2013-07-15 05:15:00
1:35 AM,73.4,67.8,83,30.33,10.0,Calm,Calm,-,N/A,,Clear,0,2013-07-15 05:35:00
1:55 AM,72.0,68.0,87,30.33,10.0,SW,3.5,-,N/A,,Clear,230,2013-07-15 05:55:00
2:15 AM,71.2,68.4,91,30.32,10.0,Calm,Calm,-,N/A,,Clear,0,2013-07-15 06:15:00
2:35 AM,71.1,67.8,89,30.33,10.0,SW,3.5,-,N/A,,Clear,230,2013-07-15 06:35:00
2:55 AM,70.2,67.8,92,30.33,10.0,SW,3.5,-,N/A,,Clear,220,2013-07-15 06:55:00
3:15 AM,69.4,67.6,94,30.33,10.0,SSW,3.5,-,N/A,,Clear,210,2013-07-15 07:15:00
3:35 AM,69.1,67.1,93,30.33,10.0,Calm,Calm,-,N/A,,Clear,0,2013-07-15 07:35:00
3:55 AM,69.3,67.6,95,30.33,10.0,Calm,Calm,-,N/A,,Clear,0,2013-07-15 07:55:00
4:15 AM,68.5,67.1,95,30.33,10.0,SSW,3.5,-,N/A,,Clear,200,2013-07-15 08:15:00
4:35 AM,69.4,67.8,95,30.33,10.0,Calm,Calm,-,N/A,,Clear,0,2013-07-15 08:35:00
4:55 AM,68.5,66.7,94,30.33,10.0,Calm,Calm,-,N/A,,Clear,0,2013-07-15 08:55:00
5:15 AM,68.2,66.9,96,30.33,10.0,Calm,Calm,-,N/A,,Clear,0,2013-07-15 09:15:00
5:35 AM,67.6,66.7,97,30.34,7.0,Calm,Calm,-,N/A,,Scattered Clouds,0,2013-07-15 09:35:00
5:55 AM,68.0,66.2,94,30.34,10.0,Calm,Calm,-,N/A,,Clear,0,2013-07-15 09:55:00
6:53 AM,68.0,66.2,94,30.35,10.0,Calm,Calm,-,N/A,,Clear,0,2013-07-15 10:53:00
7:53 AM,71.6,69.8,94,30.36,10.0,Calm,Calm,-,N/A,,Clear,0,2013-07-15 11:53:00
8:53 AM,75.2,69.8,83,30.36,10.0,Calm,Calm,-,N/A,,Clear,0,2013-07-15 12:53:00
9:53 AM,80.6,69.8,70,30.36,10.0,West,3.5,-,N/A,,Clear,270,2013-07-15 13:53:00
10:53 AM,84.2,68.0,58,30.35,10.0,Calm,Calm,-,N/A,,Partly Cloudy,0,2013-07-15 14:53:00
1:53 PM,87.8,68.0,52,30.31,10.0,Calm,Calm,-,N/A,,Scattered Clouds,0,2013-07-15 17:53:00
2:53 PM,89.6,68.0,49,30.30,10.0,WSW,5.8,-,N/A,,Mostly Cloudy,250,2013-07-15 18:53:00
3:53 PM,89.6,68.0,49,30.28,10.0,West,6.9,-,N/A,,Mostly Cloudy,270,2013-07-15 19:53:00
4:53 PM,89.6,68.0,49,30.27,10.0,WSW,4.6,-,N/A,,Scattered Clouds,240,2013-07-15 20:53:00
5:55 PM,89.6,68.0,49,30.26,10.0,West,4.6,-,N/A,,Mostly Cloudy,260,2013-07-15 21:55:00
6:34 PM,86.0,71.6,62,30.26,10.0,WNW,6.9,-,N/A,Thunderstorm,Thunderstorm,300,2013-07-15 22:34:00
6:53 PM,82.4,68.0,62,30.26,10.0,WNW,6.9,-,N/A,Thunderstorm,Mostly Cloudy,300,2013-07-15 22:53:00
7:33 PM,82.4,66.2,58,30.26,10.0,WNW,6.9,-,N/A,,Scattered Clouds,300,2013-07-15 23:33:00
7:53 PM,82.4,68.0,62,30.26,10.0,West,6.9,-,N/A,,Scattered Clouds,280,2013-07-15 23:53:00
8:53 PM,78.8,69.8,74,30.27,10.0,Calm,Calm,-,N/A,,Mostly Cloudy,0,2013-07-16 00:53:00
9:35 PM,78.8,69.8,74,30.27,10.0,Calm,Calm,-,N/A,,Scattered Clouds,0,2013-07-16 01:35:00
9:55 PM,78.1,70.0,76,30.28,10.0,Calm,Calm,-,N/A,,Scattered Clouds,0,2013-07-16 01:55:00
10:15 PM,78.3,70.0,76,30.29,10.0,Calm,Calm,-,N/A,Thunderstorm,Thunderstorm,0,2013-07-16 02:15:00
10:35 PM,80.8,69.3,68,30.29,10.0,West,3.5,-,N/A,Thunderstorm,Thunderstorm,260,2013-07-16 02:35:00
10:55 PM,79.2,70.0,73,30.29,10.0,West,6.9,-,N/A,Thunderstorm,Scattered Clouds,270,2013-07-16 02:55:00
11:15 PM,79.0,70.0,74,30.29,10.0,West,3.5,-,N/A,,Scattered Clouds,280,2013-07-16 03:15:00
11:35 PM,75.6,70.7,85,30.29,10.0,Calm,Calm,-,N/A,,Clear,0,2013-07-16 03:35:00
11:55 PM,76.1,70.5,83,30.29,10.0,Calm,Calm,-,N/A,,Scattered Clouds,0,2013-07-16 03:55:00